Tracking 29034 objects as of 25-Jun-2024
HD Live streaming from Space Station
objects crossing your sky now

GSLV R/B

Track GSLV R/B now!


NORAD ID: 58991
Int'l Code: 2024-033B
Perigee: 149.7 km
Apogee: 36,144.2 km
Inclination: 19.0 °
Period: 636.8 minutes
Semi major axis: 24517 km
RCS: Unknown
Launch date: February 17, 2024
Source: India (IND)
Launch site: SRIHARIKOTA (SRI)

Note: This is a ROCKET BODY
Your satellite tracking list
Your tracking list is empty




NASA's NSSDC Master Catalog

Two Line Element Set (TLE):
1 58991U 24033B   24172.63836837  .00081494 -21613-6  50594-3 0  9996
2 58991  18.9525 224.7743 7340443 265.4793  15.7064  2.26139883  2720
Source of the keplerian elements: AFSPC